Regional Weather Roundup
Issued by NWS Columbia, SC

Home | Current Version | Previous Version | Text Only | Print | Product List | Glossary On
Versions: 1 2 3 4 5 6 7 8 9 10 11 12 13 14 15 16 17 18 19 20 21 22 23 24 25 26 27 28 29 30 31 32 33 34 35 36 37 38 39 40 41 42 43 44 45 46 47 48 49 50
000
ASUS42 KCAE 292110
RWRCAE
REGIONAL WEATHER ROUNDUP
NATIONAL WEATHER SERVICE COLUMBIA SC
500 PM EDT MON AUG 29 2016

NOTE: "FAIR" INDICATES FEW OR NO CLOUDS BELOW 12,000 FEET WITH NO
SIGNIFICANT WEATHER AND/OR OBSTRUCTIONS TO VISIBILITY.

NOT ALL STATIONS ARE QUALITY CONTROLLED BY THE NATIONAL
WEATHER SERVICE. USE DATA WITH CAUTION...ESPECIALLY
DEWPOINT OBSERVATIONS.

SCZ001>056-GAZ040-063>065-077-292200-
...UPSTATE SOUTH CAROLINA...

CITY           SKY/WX    TMP DP  RH WIND       PRES   REMARKS
ANDERSON       SUNNY     90  64  42 E10       30.09F
LIBERTY        CLEAR     88  62  41 SE6       30.11S
SPARTANBURG    MOSUNNY   88  59  37 E7        30.10S
CLEMSON        SUNNY     90  63  40 VRB5      30.11F
GREENVILLE     SUNNY     90  64  42 VRB6      30.12F
GREENWOOD      MOSUNNY   91  65  41 N10       30.08F
GREER          MOSUNNY   88  63  43 NE9       30.10F
ROCK HILL      MOSUNNY   93  60  33 VRB7G20   30.09F
CHESTER        PTCLDY    90  55  31 N8        30.09F
LAURENS        CLEAR     90  64  43 NE7       30.08S


...CENTRAL SOUTH CAROLINA...

CITY           SKY/WX    TMP DP  RH WIND       PRES   REMARKS
COLUMBIA APT   CLOUDY    83  75  77 SE10      30.04F
COLUMBIA OWENS CLOUDY    82  74  76 VRB3      30.05F
MCENTIRE ANGB  PTSUNNY   78  74  88 E3        30.05F
ORANGEBURG     CLOUDY    91  70  49 NE12      30.03S HX  96
SUMTER SHAW    PTSUNNY   86  69  56 N3        30.02F
NEWBERRY       PTCLDY    91  61  35 NE16G26   30.08F
AIKEN          TSTM      73  70  88 SW6       30.10R
MANNING        FAIR      88  72  58 NE6       30.04S
LANCASTER      CLEAR     91  55  29 NE9       30.08F
WINNSBORO      CLOUDY    91  61  35 NE7       30.06S


...EASTERN AND COASTAL SOUTH CAROLINA...

CITY           SKY/WX    TMP DP  RH WIND       PRES   REMARKS
MYRTLE BEACH   PTSUNNY   84  70  61 VRB6      30.06F
N MYRTLE BCH   CLOUDY    85  74  69 E5        30.04F
CONWAY         FAIR      79  73  83 CALM      30.05F
MARION         FAIR      84  70  61 NE6       30.05S
HARTSVILLE     FAIR      88  59  37 NE8       30.05F
FLORENCE       CLOUDY    89  66  46 E9        30.05F
DARLINGTON     CLOUDY    87  68  52 N8        30.05F
CHARLESTON APT LGT RAIN  78  74  87 E8        30.06R
MOUNT PLEASANT FAIR      82  73  74 N5        30.05S
WALTERBORO     CLOUDY    82  82 100 E10       30.06R THUNDER HX  97
BEAUFORT       TSTM      78  75  90 NE8       30.05R FOG


...EASTERN GEORGIA...

CITY           SKY/WX    TMP DP  RH WIND       PRES   REMARKS
AUGUSTA BUSH F MOSUNNY   94  69  44 N13       30.00F HX  99
AUGUSTA DANIEL SUNNY     92  68  45 NE10      30.03F HX  96
WASHINGTON     FAIR      91  70  49 NE8G16    30.06S HX  97
CLAXTON        FAIR      90  71  53 N7        30.00S HX  96
STATESBORO     SUNNY     93  68  43 E8        30.01S HX  97
SAVANNAH       PTSUNNY   85  73  67 SE12      30.02S


...SOUTHERN NORTH CAROLINA...

CITY           SKY/WX    TMP DP  RH WIND       PRES   REMARKS
CHARLOTTE      PTSUNNY   91  58  32 N10       30.10F
MONROE         SUNNY     90  58  33 N10       30.08F
WADESBORO      CLOUDY    89  64  42 NW8       30.07S
ROCKINGHAM     CLOUDY    87  59  39 NE5       30.07F
RUTHERFORDTON    N/A     87  64  46 E5        30.13F
ASHEVILLE      CLOUDY    81  61  50 SE6       30.19F

$$



USA.gov is the U.S. government's official web portal to all federal, state and local government web resources and services.